Home   Weather   Dreieich   Past weeks

Flag for Germany Past Weather in Dreieich, Hesse, Germany — Yesterday and Last 2 Weeks

Now
61 °F

Light rain. Partly cloudy.


Feels Like: 61 °F
Forecast: 60 / 72 °F
Wind: 10 mph from Northwest

Location: Frankfurt-M-Flughafen Airport

Current Time: Jul 26, 2017 at 2:59:16 am

Latest Report: Jul 26, 2017 at 2:20 am


Visibility: N/A

Pressure: 29.71 "Hg

Humidity: 88%

Dew Point: 57 °F

Location of DreieichLocation

Past Weather in Dreieich — Graph

°F

Dreieich Temperature Yesterday

Maximum temperature yesterday: 61 °F (at 1:50 pm)
Minimum temperature yesterday: 57 °F (at 12:20 am)
Average temperature yesterday: 59 °F

High & Low Weather Summary for the Past Weeks

 TemperatureHumidityPressure
High93 °F (Jul 19, 4:20 pm)100% (Jul 12, 5:50 am)30.24 "Hg (Jul 12, 5:50 am)
Low48 °F (Jul 13, 4:50 am)34% (Jul 19, 2:50 pm)29.68 "Hg (Jul 25, 10:20 pm)
Average67 °F71%29.97 "Hg
* Reported Jul 11 1:20 am — Jul 26 1:50 am, Dreieich. Weather by CustomWeather, © 2017

Note: Actual official high and low records may vary slightly from our data, if they occured in-between our weather recording intervals... More about our weather records

Advertising

Dreieich Weather History for the Previous 24 Hours

Scroll right to see more
 ConditionsComfort  
Time TempWeatherWind HumidityBarometerVisibility
1:50 am
Wed, Jul 26
59 °FLight rain. Partly cloudy.10 mph94%29.68 "HgN/A
1:20 am61 °FLight rain. Partly cloudy.8 mph88%29.68 "HgN/A
12:50 am59 °FLight rain. Partly cloudy.12 mph94%29.68 "HgN/A
12:20 am59 °FLight rain. Partly cloudy.10 mph94%29.68 "HgN/A
11:50 pm
Tue, Jul 25
59 °FLight rain. Partly cloudy.12 mph94%29.68 "HgN/A
11:20 pm59 °FLight rain. Partly cloudy.12 mph94%29.68 "HgN/A
10:50 pm59 °FLight rain. Partly cloudy.14 mph94%29.68 "HgN/A
10:20 pm59 °FLight rain. Partly cloudy.16 mph94%29.68 "HgN/A
9:50 pm59 °FLight rain. Overcast.12 mph94%29.71 "HgN/A
9:22 pm59 °FLight rain. Overcast.12 mph94%29.71 "HgN/A
8:50 pm59 °FLight rain. Cloudy.10 mph94%29.71 "HgN/A
8:20 pm59 °FLight rain. Mostly cloudy.13 mph94%29.74 "HgN/A
7:50 pm59 °FLight rain. Mostly cloudy.12 mph94%29.74 "HgN/A
7:20 pm59 °FLight rain. Broken clouds.12 mph94%29.74 "HgN/A
6:57 pm59 °FRain. Partly sunny.12 mph94%29.74 "HgN/A
6:50 pm59 °FLight rain. Broken clouds.12 mph94%29.74 "HgN/A
6:29 pm59 °FLight rain. Broken clouds.12 mph94%29.74 "HgN/A
6:20 pm59 °FRain. Broken clouds.10 mph94%29.74 "HgN/A
5:54 pm59 °FRain. Mostly cloudy.12 mph94%29.74 "HgN/A
5:50 pm59 °FLight rain. More clouds than sun.12 mph94%29.77 "HgN/A
5:20 pm61 °FLight rain. More clouds than sun.9 mph88%29.77 "HgN/A
4:55 pm59 °FLight rain. More clouds than sun.6 mph94%29.77 "HgN/A
4:50 pm59 °FRain. More clouds than sun.5 mph94%29.77 "HgN/A
4:20 pm61 °FLight rain. More clouds than sun.8 mph83%29.77 "HgN/A
3:50 pm61 °FLight rain. More clouds than sun.9 mph83%29.77 "HgN/A
3:20 pm61 °FLight rain. More clouds than sun.10 mph88%29.77 "HgN/A
2:50 pm61 °FLight rain. Mostly cloudy.13 mph88%29.77 "HgN/A
2:20 pm61 °FLight rain. Mostly cloudy.13 mph88%29.77 "HgN/A
1:50 pm61 °FLight rain. More clouds than sun.10 mph88%29.77 "HgN/A
1:20 pm59 °FLight rain. More clouds than sun.10 mph94%29.77 "HgN/A
12:50 pm59 °FLight rain. More clouds than sun.13 mph94%29.77 "HgN/A
12:20 pm59 °FLight rain. More clouds than sun.13 mph88%29.77 "HgN/A
11:50 am59 °FLight rain. Mostly cloudy.12 mph88%29.77 "HgN/A
11:20 am57 °FLight rain. Broken clouds.10 mph94%29.77 "HgN/A
10:50 am57 °FLight rain. Mostly cloudy.12 mph88%29.77 "HgN/A
10:34 am57 °FLight rain. Broken clouds.10 mph88%29.80 "HgN/A
10:20 am59 °FRain. Broken clouds.10 mph82%29.80 "HgN/A
9:50 am59 °FLight rain. Broken clouds.12 mph82%29.77 "HgN/A
9:20 am59 °FLight rain. Broken clouds.9 mph88%29.80 "HgN/A
8:56 am57 °FLight rain. Broken clouds.12 mph88%29.77 "HgN/A
8:50 am59 °FRain. Broken clouds.12 mph82%29.77 "HgN/A
8:20 am59 °FBroken clouds.12 mph82%29.77 "HgN/A
7:50 am57 °FBroken clouds.9 mph88%29.77 "HgN/A
7:20 am57 °FSprinkles. Broken clouds.7 mph88%29.77 "HgN/A
6:50 am57 °FBroken clouds.8 mph88%29.77 "HgN/A
6:20 am57 °FBroken clouds.9 mph88%29.77 "HgN/A
5:50 am57 °FBroken clouds.9 mph88%29.80 "HgN/A
4:50 am57 °FPartly cloudy.9 mph82%29.80 "HgN/A
4:20 am57 °FPassing clouds.7 mph88%29.80 "HgN/A
3:50 am57 °FPassing clouds.7 mph82%29.80 "HgN/A
3:20 am57 °FPartly cloudy.10 mph82%29.80 "HgN/A
2:50 am57 °FPartly cloudy.7 mph82%29.83 "HgN/A
2:20 am57 °FPartly cloudy.6 mph88%29.83 "HgN/A
Weather by CustomWeather, © 2017

See weather overviewHow to use our weather pages